FW3835 Weather Reports


Display with metric or nautical units.
time (UTC)temp
F
wind
direction
speed
MPH
gust
MPH
rain 1hr
in
rain 24hr
in
rain mn
in
humidity
%
barometer
mb
20260504194517 47 287 6.0 16.0 0.00 0.06 0.06 37 1001.7
20260504193021 42 288 6.0 20.0 0.00 0.06 0.06 41 1001.9
20260504191527 43 307 4.0 21.0 0.00 0.06 0.06 44 1001.7
20260504190027 42 288 5.0 19.0 0.00 0.06 0.06 45 1001.6
20260504184542 41 291 5.0 15.0 0.00 0.06 0.06 44 1001.4
20260504183015 42 315 10.0 19.0 0.00 0.06 0.06 44 1001.2
20260504181526 40 265 8.0 27.0 0.00 0.06 0.06 49 1001.2
20260504180025 42 263 6.0 17.0 0.00 0.06 0.06 48 1001.0
20260504174526 40 285 4.0 16.0 0.00 0.06 0.06 51 1000.9
20260504173026 41 336 7.0 17.0 0.00 0.06 0.06 51 1000.7
20260504171521 42 328 7.0 18.0 0.00 0.06 0.06 51 1000.6
20260504081527 46 302 3.0 17.0 0.00 0.00 0.00 61 994.4
20260504050005 61 258 4.0 13.0 0.00 0.00 0.00 30 993.8
20260504044515 62 255 4.0 22.0 0.00 0.00 0.00 27 993.4
20260504043022 62 263 5.0 21.0 0.00 0.00 0.00 25 992.9
20260504041531 63 186 4.0 19.0 0.00 0.00 0.00 24 993.2
20260504040004 63 223 5.0 21.0 0.00 0.00 0.00 24 993.3
20260504034506 62 235 6.0 16.0 0.00 0.00 0.00 24 993.8
20260504033016 62 198 5.0 18.0 0.00 0.00 0.00 23 994.3
20260504031520 63 123 6.0 12.0 0.00 0.00 0.00 23 994.7
20260504030021 62 181 3.0 12.0 0.00 0.00 0.00 25 995.2
20260504024505 63 263 2.0 13.0 0.00 0.00 0.00 24 995.6
20260504023010 63 266 4.0 12.0 0.00 0.00 0.00 24 995.8
20260504021518 63 217 4.0 12.0 0.00 0.00 0.00 24 996.3
20260504020020 63 201 3.0 10.0 0.00 0.00 0.00 24 996.6
20260504014527 63 208 5.0 12.0 0.00 0.00 0.00 23 996.9
20260504013005 63 184 2.0 13.0 0.00 0.00 0.00 24 997.3
20260504011512 64 271 1.0 9.0 0.00 0.00 0.00 24 997.6
20260504010015 64 234 3.0 13.0 0.00 0.00 0.00 23 998.0
20260504004522 65 241 2.0 11.0 0.00 0.00 0.00 22 998.3
20260504003029 66 234 1.0 9.0 0.00 0.00 0.00 22 998.7
20260504001509 66 190 2.0 8.0 0.00 0.00 0.00 21 999.0
20260504000014 66 252 4.0 10.0 0.00 0.00 0.00 21 999.4
20260503234518 66 248 3.0 16.0 0.00 0.00 0.00 22 999.7
20260503233033 67 223 1.0 8.0 0.00 0.00 0.00 21 999.9
20260503231523 68 213 3.0 11.0 0.00 0.00 0.00 19 1000.3
20260503230011 70 254 2.0 10.0 0.00 0.00 0.00 18 1000.5
20260503224517 70 274 2.0 10.0 0.00 0.00 0.00 18 1000.9
20260503223018 70 303 4.0 10.0 0.00 0.00 0.00 18 1001.2
20260503221529 69 273 3.0 11.0 0.00 0.00 0.00 19 1001.7
20260503220028 71 248 3.0 7.0 0.00 0.00 0.00 19 1001.9
20260503214514 71 282 3.0 9.0 0.00 0.00 0.00 19 1002.3
20260503213017 69 271 2.0 11.0 0.00 0.00 0.00 20 1002.6
20260503211524 69 291 2.0 9.0 0.00 0.00 0.00 21 1003.1
20260503210026 69 271 5.0 13.0 0.00 0.00 0.00 17 1003.2
20260503204526 69 252 2.0 10.0 0.00 0.00 0.00 16 1003.7
20260503203016 67 261 3.0 8.0 0.00 0.00 0.00 17 1003.9
20260503201518 69 242 3.0 14.0 0.00 0.00 0.00 15 1004.2
20260503200024 68 278 3.0 9.0 0.00 0.00 0.00 16 1004.5